Atka, AK

1:04 AM HDT on July 24, 2017 (GMT -0900)
Atka

Weather History for PAAK - March, 2013

Change the Weather History Date:

Tuesday, March 12, 2013

  Actual Average (PADK) Record (PADK)
Temperature  
Mean Temperature 34 °F -  
Max Temperature 37 °F 37 °F 48 °F (1967)
Min Temperature 30 °F 28 °F 17 °F (2014)
Degree Days  
Heating Degree Days 32    
Moisture  
Dew Point 29 °F    
Average Humidity 78    
Maximum Humidity 93    
Minimum Humidity 70    
Precipitation  
Precipitation 0.00 in - - ()
Sea Level Pressure  
Sea Level Pressure 30.39 in    
Wind  
Wind Speed 6 mph (SSE)    
Max Wind Speed 12 mph    
Max Gust Speed -    
Averages and records for this station are not official NWS values.
T = Trace of Precipitation, MM = Missing Value Source: NWS Daily Summary

Daily Weather History Graph

Daily Weather History Graph

Search for Another Location

Airport or City:

Trip Planner

Search our weather history database for the weather conditions in past years. The results will help you decide how hot, cold, wet, or windy it might be!

Date:

Astronomy

Mar. 12, 2013 Rise Set
Actual Time 8:56 AM HDT 8:37 PM HDT
Civil Twilight 8:23 AM HDT 9:10 PM HDT
Nautical Twilight 7:43 AM HDT 9:50 PM HDT
Astronomical Twilight 7:03 AM HDT 10:31 PM HDT
Moon 8:57 AM HDT (3/12) 10:24 PM HDT (3/12)
Length of Visible Light 12h 47m
Length of Day
11h 40m
New Moon, 1% of the Moon is Illuminated
Mar 12
New Moon
Mar 19
First Quarter
Mar 27
Full
Apr 2
Last Quarter
Apr 10
New

Hourly Weather History & Observations

Time (HDT) Temp. Windchill Dew Point Humidity Pressure Visibility Wind Dir Wind Speed Gust Speed Precip Events Conditions
12:16 AM 37.4 °F 32.8 °F 32.0 °F 81% 30.52 in - SE 5.8 mph - N/A   Overcast
12:36 AM 35.6 °F 27.5 °F 32.0 °F 87% 30.52 in - SSE 11.5 mph - N/A   Overcast
12:56 AM 35.6 °F 28.0 °F 30.2 °F 81% 30.52 in - South 10.4 mph - N/A   Mostly Cloudy
1:16 AM 35.6 °F 27.5 °F 30.2 °F 81% 30.51 in - SSE 11.5 mph - N/A   Partly Cloudy
1:36 AM 35.6 °F 28.0 °F 30.2 °F 81% 30.51 in - SSE 10.4 mph - N/A   Partly Cloudy
1:56 AM 35.6 °F 28.6 °F 30.2 °F 81% 30.51 in - SSE 9.2 mph - N/A   Mostly Cloudy
2:16 AM 35.6 °F 29.2 °F 30.2 °F 81% 30.50 in - SSE 8.1 mph - N/A   Overcast
2:36 AM 35.6 °F 29.2 °F 30.2 °F 81% 30.50 in - SSE 8.1 mph - N/A   Overcast
2:56 AM 35.6 °F 30.7 °F 30.2 °F 81% 30.50 in - SSE 5.8 mph - N/A   Mostly Cloudy
3:16 AM 35.6 °F 29.2 °F 30.2 °F 81% 30.50 in - SSE 8.1 mph - N/A   Mostly Cloudy
3:36 AM 35.6 °F 29.2 °F 30.2 °F 81% 30.49 in - SSE 8.1 mph - N/A   Overcast
3:56 AM 35.6 °F 28.6 °F 30.2 °F 81% 30.49 in - SSE 9.2 mph - N/A   Overcast
4:16 AM 35.6 °F 29.2 °F 30.2 °F 81% 30.49 in - South 8.1 mph - N/A   Overcast
4:36 AM 35.6 °F 29.9 °F 30.2 °F 81% 30.48 in - SSE 6.9 mph - N/A   Overcast
4:56 AM 35.6 °F 28.6 °F 30.2 °F 81% 30.47 in - South 9.2 mph - N/A   Overcast
5:16 AM 35.6 °F 32.8 °F 30.2 °F 81% 30.47 in - SSE 3.5 mph - N/A   Overcast
5:36 AM 33.8 °F - 30.2 °F 87% 30.46 in - Calm Calm - N/A   Mostly Cloudy
5:56 AM 33.8 °F - 26.6 °F 75% 30.45 in - Calm Calm - N/A   Mostly Cloudy
6:16 AM 30.2 °F - 28.4 °F 93% 30.45 in - Calm Calm - N/A   Unknown
6:36 AM 32.0 °F - 26.6 °F 80% 30.45 in - Calm Calm - N/A   Partly Cloudy
6:56 AM 33.8 °F - 28.4 °F 81% 30.45 in - Calm Calm - N/A   Mostly Cloudy
7:16 AM 32.0 °F - 28.4 °F 87% 30.45 in - Calm Calm - N/A   Unknown
7:36 AM 32.0 °F - 28.4 °F 87% 30.45 in - Calm Calm - N/A   Unknown
7:56 AM 33.8 °F - 28.4 °F 81% 30.45 in - Calm Calm - N/A   Mostly Cloudy
8:16 AM 30.2 °F - 28.4 °F 93% 30.44 in - Calm Calm - N/A   Unknown
8:36 AM 30.2 °F - 26.6 °F 86% 30.44 in - Calm Calm - N/A   Mostly Cloudy
8:56 AM 32.0 °F - 28.4 °F 87% 30.43 in - Calm Calm - N/A   Overcast
9:16 AM 33.8 °F - 30.2 °F 87% 30.43 in - Calm Calm - N/A   Overcast
9:36 AM 33.8 °F - 28.4 °F 81% 30.43 in - Calm Calm - N/A   Overcast
10:16 AM 35.6 °F - 30.2 °F 81% 30.42 in - Calm Calm - N/A   Unknown
10:36 AM 35.6 °F 31.7 °F 30.2 °F 81% 30.42 in - East 4.6 mph - N/A   Overcast
10:56 AM 35.6 °F 30.7 °F 30.2 °F 81% 30.42 in - East 5.8 mph - N/A   Overcast
11:16 AM 35.6 °F 31.7 °F 28.4 °F 75% 30.42 in - South 4.6 mph - N/A   Overcast
11:36 AM 35.6 °F 29.2 °F 28.4 °F 75% 30.41 in - SE 8.1 mph - N/A   Overcast
11:56 AM 37.4 °F 34.9 °F 30.2 °F 75% 30.41 in - South 3.5 mph - N/A   Overcast
12:16 PM 37.4 °F 33.8 °F 30.2 °F 75% 30.40 in - SSE 4.6 mph - N/A   Overcast
12:36 PM 37.4 °F 33.8 °F 30.2 °F 75% 30.40 in - SE 4.6 mph - N/A   Overcast
12:56 PM 37.4 °F 32.8 °F 30.2 °F 75% 30.39 in - East 5.8 mph - N/A   Overcast
1:16 PM 37.4 °F 29.8 °F 30.2 °F 75% 30.39 in - ESE 11.5 mph - N/A   Overcast
1:36 PM 37.4 °F 31.4 °F 30.2 °F 75% 30.39 in - SE 8.1 mph - N/A   Overcast
1:56 PM 37.4 °F 32.8 °F 28.4 °F 70% 30.39 in - SE 5.8 mph - N/A   Overcast
2:16 PM 37.4 °F 32.1 °F 30.2 °F 75% 30.38 in - South 6.9 mph - N/A   Overcast
2:36 PM 37.4 °F 31.4 °F 28.4 °F 70% 30.37 in - South 8.1 mph - N/A   Overcast
2:56 PM 37.4 °F 32.8 °F 30.2 °F 75% 30.36 in - ESE 5.8 mph - N/A   Overcast
3:16 PM 37.4 °F 30.3 °F 28.4 °F 70% 30.35 in - SSE 10.4 mph - N/A   Overcast
3:36 PM 37.4 °F 31.4 °F 30.2 °F 75% 30.34 in - SE 8.1 mph - N/A   Overcast
3:56 PM 37.4 °F 32.8 °F 30.2 °F 75% 30.34 in - South 5.8 mph - N/A   Overcast
4:16 PM 37.4 °F 30.3 °F 28.4 °F 70% 30.33 in - South 10.4 mph - N/A   Overcast
4:36 PM 37.4 °F 31.4 °F 28.4 °F 70% 30.32 in - SSE 8.1 mph - N/A   Overcast
4:56 PM 37.4 °F 32.1 °F 30.2 °F 75% 30.31 in - South 6.9 mph - N/A   Overcast
5:16 PM 37.4 °F 32.8 °F 28.4 °F 70% 30.31 in - SSE 5.8 mph - N/A   Overcast
5:36 PM 37.4 °F 31.4 °F 28.4 °F 70% 30.30 in - SSE 8.1 mph - N/A   Mostly Cloudy
5:56 PM 37.4 °F 32.8 °F 28.4 °F 70% 30.29 in - SE 5.8 mph - N/A   Mostly Cloudy
6:16 PM 37.4 °F 32.1 °F 28.4 °F 70% 30.29 in - SSE 6.9 mph - N/A   Overcast
6:36 PM 35.6 °F 32.8 °F 28.4 °F 75% 30.29 in - ESE 3.5 mph - N/A   Overcast
6:56 PM 35.6 °F 29.2 °F 28.4 °F 75% 30.28 in - South 8.1 mph - N/A   Overcast
7:16 PM 35.6 °F 29.9 °F 28.4 °F 75% 30.28 in - SE 6.9 mph - N/A   Overcast
7:36 PM 35.6 °F 30.7 °F 28.4 °F 75% 30.27 in - South 5.8 mph - N/A   Overcast
7:56 PM 35.6 °F 30.7 °F 28.4 °F 75% 30.27 in - SE 5.8 mph - N/A   Overcast
8:56 PM 35.6 °F 29.2 °F 26.6 °F 70% 30.26 in - South 8.1 mph - N/A   Overcast
9:16 PM 35.6 °F 31.7 °F 28.4 °F 75% 30.26 in - SSE 4.6 mph - N/A   Overcast
9:36 PM 35.6 °F 31.7 °F 28.4 °F 75% 30.26 in - SE 4.6 mph - N/A   Overcast
9:56 PM 35.6 °F - 26.6 °F 70% 30.26 in - Calm Calm - N/A   Overcast
10:16 PM 35.6 °F 32.8 °F 28.4 °F 75% 30.25 in - SSE 3.5 mph - N/A   Overcast
10:36 PM 35.6 °F 31.7 °F 28.4 °F 75% 30.25 in - South 4.6 mph - N/A   Overcast
10:56 PM 35.6 °F 32.8 °F 28.4 °F 75% 30.24 in - ESE 3.5 mph - N/A   Overcast
11:16 PM 35.6 °F - 28.4 °F 75% 30.24 in - Calm Calm - N/A   Overcast
11:36 PM 35.6 °F - 28.4 °F 75% 30.24 in - Calm Calm - N/A   Overcast
11:56 PM 35.6 °F - 28.4 °F 75% 30.23 in - Calm Calm - N/A   Overcast